Change the Weather History Date:

Saturday, August 18, 2012

  Actual Average Record
Temperature  
Mean Temperature 63 °F 68 °F  
Max Temperature 79 °F 83 °F 102 °F (1906)
Min Temperature 46 °F 54 °F 35 °F (1940)
Degree Days  
Heating Degree Days 2 2  
Month to date heating degree days 35 19  
Since 1 June heating degree days 104 190  
Since 1 July heating degree days 36 53  
Cooling Degree Days 0 5  
Month to date cooling degree days 59 104  
Year to date cooling degree days 472 333  
Since 1 June cooling degree days 459 323  
Growing Degree Days 12 (Base 50)    
Moisture  
Dew Point 43 °F    
Average Humidity 52    
Maximum Humidity 76    
Minimum Humidity 28    
Precipitation  
Precipitation 0.00 in 0.05 in 0.53 in (1951)
Month to date precipitation 1.15 0.90  
Year to date precipitation 8.40 11.65  
Sea Level Pressure  
Sea Level Pressure 30.06 in    
Wind  
Wind Speed 7 mph (NNW)    
Max Wind Speed 17 mph    
Max Gust Speed 23 mph    
Visibility 10 miles    
Events      
T = Trace of Precipitation, MM = Missing Value Source: NWS Daily Summary

Daily Weather History Graph

Daily Weather History Graph

Search for Another Location

Airport or City:

Trip Planner

Search our weather history database for the weather conditions in past years. The results will help you decide how hot, cold, wet, or windy it might be!

Date:

Astronomy

Aug. 18, 2012 Rise Set
Actual Time 5:53 AM MDT 7:55 PM MDT
Civil Twilight 5:20 AM MDT 8:28 PM MDT
Nautical Twilight 4:40 AM MDT 9:08 PM MDT
Astronomical Twilight 3:55 AM MDT 9:53 PM MDT
Moon 7:12 AM MDT (8/18) 8:01 PM MDT (8/18)
Length of Visible Light 15h 07m
Length of Day
14h 01m
New Moon, 1% of the Moon is Illuminated
Aug 18
New Moon
Aug 24
First Quarter
Aug 31
Full
Sep 8
Last Quarter
Sep 15
New

Hourly Weather History & Observations

Time (MDT) Temp. Windchill Dew Point Humidity Pressure Visibility Wind Dir Wind Speed Gust Speed Precip Events Conditions
12:56 AM 55.0 °F - 41.0 °F 59% 30.00 in 10.0 mi NW 5.8 mph - N/A   Clear
1:56 AM 50.0 °F - 42.1 °F 74% 30.01 in 10.0 mi WNW 5.8 mph - N/A   Clear
2:56 AM 50.0 °F - 41.0 °F 71% 30.02 in 10.0 mi NW 6.9 mph - N/A   Clear
3:56 AM 46.9 °F - 39.9 °F 77% 30.03 in 10.0 mi WNW 9.2 mph - N/A   Clear
4:56 AM 46.0 °F 41.4 °F 39.0 °F 76% 30.04 in 10.0 mi WNW 9.2 mph - N/A   Clear
7:56 AM 61.0 °F - 44.1 °F 54% 30.08 in 10.0 mi NNW 8.1 mph - N/A   Clear
8:56 AM 68.0 °F - 44.1 °F 42% 30.09 in 10.0 mi North 10.4 mph - N/A   Clear
9:56 AM 72.0 °F - 43.0 °F 35% 30.09 in 10.0 mi North 13.8 mph 18.4 mph N/A   Clear
10:56 AM 73.9 °F - 42.1 °F 32% 30.09 in 10.0 mi North 11.5 mph 20.7 mph N/A   Clear
11:56 AM 75.0 °F - 42.1 °F 31% 30.09 in 10.0 mi NE 12.7 mph - N/A   Partly Cloudy
12:56 PM 75.9 °F - 42.1 °F 30% 30.08 in 10.0 mi NNW 11.5 mph 20.7 mph N/A   Mostly Cloudy
1:56 PM 73.9 °F - 43.0 °F 33% 30.09 in 10.0 mi North 9.2 mph - N/A   Mostly Cloudy
2:56 PM 77.0 °F - 43.0 °F 30% 30.06 in 10.0 mi North 10.4 mph - N/A   Scattered Clouds
3:56 PM 78.1 °F - 43.0 °F 29% 30.06 in 10.0 mi NNW 8.1 mph - N/A   Clear
4:56 PM 78.1 °F - 42.1 °F 28% 30.05 in 10.0 mi NE 10.4 mph - N/A   Partly Cloudy
5:56 PM 75.0 °F - 41.0 °F 29% 30.06 in 10.0 mi NNW 8.1 mph - N/A   Mostly Cloudy
6:56 PM 73.9 °F - 45.0 °F 35% 30.05 in 10.0 mi NE 3.5 mph - N/A   Clear
7:56 PM 69.1 °F - 45.0 °F 42% 30.05 in 10.0 mi NNE 3.5 mph - N/A   Scattered Clouds
8:56 PM 63.0 °F - 45.0 °F 52% 30.06 in 10.0 mi Calm Calm - N/A   Mostly Cloudy
10:56 PM 57.9 °F - 45.0 °F 62% 30.07 in 10.0 mi WNW 3.5 mph - N/A   Clear
11:56 PM 57.9 °F - 44.1 °F 60% 30.06 in 10.0 mi WNW 3.5 mph - N/A   Clear